Home   Weather   Birmingham   Past weeks
Flag for United Kingdom

Past Weather in Birmingham, England, United Kingdom — Yesterday and Last 2 Weeks

Now
61 °F

Clear.


Feels Like: 61 °F
Forecast: 65 / 50 °F
Wind: 12 mph from Northwest

Location: Birmingham / Airport

Current Time: May 24, 2019 at 10:12:30 pm

Latest Report: May 24, 2019 at 9:50 pm


Visibility: 10 mi

Pressure: 30.07 "Hg

Humidity: 68%

Dew Point: 50 °F

Location of BirminghamLocation

Past Weather in Birmingham — Graph

°F

Birmingham Temperature Yesterday

Maximum temperature yesterday: 70 °F (at 5:50 pm)
Minimum temperature yesterday: 43 °F (at 5:20 am)
Average temperature yesterday: 59 °F

High & Low Weather Summary for the Past Weeks

 TemperatureHumidityPressure
High70 °F (May 23, 5:50 pm)100% (May 9, 9:20 pm)30.72 "Hg (May 9, 9:20 pm)
Low39 °F (May 12, 4:50 am)33% (May 23, 8:20 pm)29.65 "Hg (May 9, 9:20 pm)
Average55 °F67%30.12 "Hg
* Reported May 9 9:20 pm — May 24 9:20 pm, Birmingham. Weather by CustomWeather, © 2019

Note: Actual official high and low records may vary slightly from our data, if they occured in-between our weather recording intervals... More about our weather records

Advertising

Birmingham Weather History for the Previous 24 Hours

Scroll right to see more
 ConditionsComfort  
Time TempWeatherWind HumidityBarometerVisibility
9:20 pm
Fri, May 24
61 °FClear.10 mph63%30.07 "Hg10 mi
8:50 pm63 °FPassing clouds.10 mph59%30.07 "HgN/A
8:20 pm63 °FPassing clouds.13 mph59%30.07 "HgN/A
7:50 pm63 °FScattered clouds.14 mph59%30.07 "HgN/A
6:50 pm64 °FScattered clouds.12 mph56%30.04 "HgN/A
6:20 pm64 °FPassing clouds.13 mph56%30.04 "HgN/A
5:50 pm66 °FPassing clouds.13 mph52%30.04 "HgN/A
5:20 pm66 °FSunny.12 mph52%30.04 "Hg10 mi
4:50 pm68 °FScattered clouds.15 mph49%30.04 "HgN/A
4:20 pm68 °FScattered clouds.14 mph49%30.04 "HgN/A
3:50 pm68 °FScattered clouds.14 mph46%30.04 "HgN/A
3:20 pm68 °FScattered clouds.16 mph49%30.04 "HgN/A
2:50 pm68 °FScattered clouds.15 mph49%30.04 "HgN/A
2:20 pm66 °FScattered clouds.13 mph52%30.07 "HgN/A
1:50 pm66 °FScattered clouds.10 mph52%30.07 "HgN/A
1:20 pm64 °FScattered clouds.12 mph56%30.07 "HgN/A
12:50 pm64 °FPartly sunny.13 mph56%30.07 "HgN/A
12:20 pm64 °FScattered clouds.10 mph56%30.07 "HgN/A
11:50 am64 °FPartly sunny.12 mph60%30.07 "HgN/A
11:20 am64 °FScattered clouds.12 mph60%30.07 "HgN/A
10:50 am64 °FScattered clouds.14 mph60%30.07 "HgN/A
10:20 am63 °FScattered clouds.10 mph64%30.07 "HgN/A
9:50 am63 °FPassing clouds.10 mph64%30.07 "HgN/A
9:20 am61 °FPassing clouds.12 mph63%30.07 "HgN/A
8:50 am61 °FSunny.12 mph63%30.07 "Hg10 mi
8:20 am59 °FSunny.9 mph63%30.04 "Hg10 mi
7:50 am57 °FSunny.3 mph67%30.04 "Hg10 mi
7:20 am55 °FSunny.5 mph72%30.04 "Hg10 mi
6:50 am54 °FSunny.2 mph77%30.04 "Hg10 mi
6:20 am52 °FSunny.2 mph82%30.04 "Hg10 mi
5:20 am50 °FSunny.5 mph88%30.04 "Hg10 mi
4:50 am50 °FClear.3 mph88%30.04 "Hg10 mi
4:20 am52 °FClear.3 mph82%30.04 "Hg10 mi
3:50 am52 °FPassing clouds.5 mph82%30.04 "HgN/A
3:20 am54 °FClear.6 mph77%30.04 "Hg10 mi
2:50 am52 °FClear.6 mph82%30.04 "Hg10 mi
2:20 am54 °FClear.5 mph77%30.01 "Hg10 mi
1:50 am54 °FClear.3 mph77%30.01 "Hg10 mi
1:20 am55 °FClear.8 mph72%30.01 "Hg10 mi
12:50 am55 °FClear.8 mph72%30.01 "Hg10 mi
12:20 am57 °FClear.8 mph67%30.01 "Hg10 mi
11:50 pm
Thu, May 23
55 °FClear.8 mph72%30.01 "Hg10 mi
11:20 pm57 °FClear.8 mph67%30.01 "Hg10 mi
10:50 pm57 °FClear.8 mph67%30.01 "Hg10 mi
10:20 pm59 °FClear.9 mph63%30.01 "Hg10 mi
Weather by CustomWeather, © 2019

See weather overview